Weather History for Baton Rouge, LA

Change the Weather History Date:

Monday, February 18, 2013

  Actual Average Record
Temperature  
Mean Temperature 55 °F 56 °F  
Max Temperature 66 °F 66 °F 85 °F (1922)
Min Temperature 43 °F 45 °F 20 °F (1910)
Degree Days  
Heating Degree Days 10 10  
Month to date heating degree days 166 208  
Since 1 July heating degree days 1084 1248  
Cooling Degree Days 0 1  
Month to date cooling degree days 4 16  
Year to date cooling degree days 25 29  
Growing Degree Days 4 (Base 50)    
Moisture  
Dew Point 52 °F    
Average Humidity 80    
Maximum Humidity 100    
Minimum Humidity 60    
Precipitation  
Precipitation 0.65 in 0.19 in 4.12 in (1988)
Month to date precipitation 4.07 3.35  
Year to date precipitation 18.74 9.07  
Snow  
Snow 0.00 in - - ()
Month to date snowfall 0.0  
Since 1 July snowfall 0.0  
Snow Depth 0.00 in    
Sea Level Pressure  
Sea Level Pressure 30.05 in    
Wind  
Wind Speed 11 mph (SE)    
Max Wind Speed 23 mph    
Max Gust Speed 30 mph    
Visibility 9 miles    
Events Rain    
T = Trace of Precipitation, MM = Missing Value Source: NWS Daily Summary

Daily Weather History Graph

Daily Weather History Graph

Search for Another Location

Airport:

Trip Planner

Search our weather history database for the weather conditions in past years. The results will help you decide how hot, cold, wet, or windy it might be!

Date:

Astronomy

Feb. 18, 2013 Rise Set
Actual Time 6:42 AM CST 5:55 PM CST
Civil Twilight 6:17 AM CST 6:19 PM CST
Nautical Twilight 5:49 AM CST 6:47 PM CST
Astronomical Twilight 5:21 AM CST 7:15 PM CST
Moon 11:53 AM CST (2/18) 1:10 AM CST (2/18)
Length of Visible Light 12h 02m
Length of Day
11h 13m
First Quarter, 58% of the Moon is Illuminated
Feb 18
First Quarter
Feb 25
Full
Mar 4
Last Quarter
Mar 11
New
Mar 19
First Quarter

Hourly Weather History & Observations

Time (CST) Temp. Windchill Dew Point Humidity Pressure Visibility Wind Dir Wind Speed Gust Speed Precip Events Conditions
12:53 AM 46.0 °F 43.1 °F 37.9 °F 73% 30.21 in 10.0 mi SE 5.8 mph - N/A   Clear
1:53 AM 46.0 °F 43.1 °F 37.9 °F 73% 30.19 in 10.0 mi SE 5.8 mph - N/A   Clear
2:53 AM 44.1 °F 40.8 °F 37.0 °F 76% 30.18 in 10.0 mi ESE 5.8 mph - N/A   Clear
3:53 AM 44.1 °F 40.1 °F 37.9 °F 79% 30.16 in 10.0 mi ESE 6.9 mph - N/A   Clear
4:53 AM 45.0 °F 41.2 °F 39.9 °F 82% 30.15 in 10.0 mi ESE 6.9 mph - N/A   Clear
5:53 AM 46.9 °F - 42.1 °F 83% 30.14 in 10.0 mi ESE 9.2 mph - N/A   Clear
6:53 AM 48.0 °F - 44.1 °F 86% 30.14 in 10.0 mi ESE 9.2 mph - N/A   Mostly Cloudy
7:53 AM 51.8 °F - 46.4 °F 82% 30.15 in 10.0 mi ESE 8.1 mph - N/A   Overcast
8:53 AM 57.0 °F - 48.0 °F 72% 30.16 in 10.0 mi ESE 9.2 mph - N/A   Overcast
9:53 AM 59.0 °F - 48.9 °F 69% 30.14 in 10.0 mi SE 11.5 mph 20.7 mph N/A   Overcast
10:53 AM 64.0 °F - 50.0 °F 60% 30.13 in 10.0 mi SSE 17.3 mph 25.3 mph N/A   Overcast
11:53 AM 64.9 °F - 52.0 °F 63% 30.11 in 10.0 mi SE 16.1 mph 24.2 mph N/A   Overcast
12:53 PM 64.0 °F - 51.1 °F 63% 30.09 in 10.0 mi SSE 16.1 mph 21.9 mph N/A   Overcast
1:53 PM 62.1 °F - 55.9 °F 80% 30.06 in 10.0 mi SE 10.4 mph - 0.01 in   Overcast
2:53 PM 63.0 °F - 57.0 °F 81% 30.03 in 10.0 mi SE 13.8 mph - 0.00 in   Overcast
3:53 PM 63.0 °F - 55.0 °F 75% 30.00 in 10.0 mi SE 12.7 mph 25.3 mph N/A   Overcast
4:53 PM 62.1 °F - 55.0 °F 78% 30.00 in 10.0 mi ESE 11.5 mph - N/A   Overcast
5:11 PM 62.6 °F - 55.4 °F 77% 29.99 in 10.0 mi SE 13.8 mph - N/A   Overcast
5:53 PM 60.1 °F - 55.9 °F 86% 29.99 in 10.0 mi ESE 9.2 mph - N/A   Overcast
6:53 PM 60.1 °F - 55.9 °F 86% 29.99 in 10.0 mi ESE 9.2 mph - N/A   Overcast
7:00 PM 60.8 °F - 55.4 °F 82% 29.98 in 10.0 mi ESE 8.1 mph - N/A   Overcast
7:27 PM 60.8 °F - 55.4 °F 82% 29.99 in 10.0 mi ESE 6.9 mph - N/A   Overcast
7:50 PM 60.8 °F - 55.4 °F 82% 29.98 in 10.0 mi ESE 8.1 mph - N/A   Overcast
7:53 PM 60.1 °F - 55.9 °F 86% 29.97 in 10.0 mi ESE 8.1 mph - N/A   Overcast
8:23 PM 60.8 °F - 55.4 °F 82% 29.97 in 10.0 mi ESE 5.8 mph - 0.00 in Rain Light Rain
8:44 PM 62.6 °F - 57.2 °F 82% 29.97 in 10.0 mi SSE 5.8 mph - 0.00 in   Overcast
8:53 PM 63.0 °F - 57.0 °F 81% 29.98 in 10.0 mi SSE 6.9 mph - 0.00 in Rain Light Rain
9:15 PM 62.6 °F - 59.0 °F 88% 29.97 in 4.0 mi SSE 10.4 mph - 0.06 in Rain Heavy Rain
9:53 PM 61.0 °F - 60.1 °F 97% 29.97 in 3.0 mi South 10.4 mph - 0.30 in Rain Heavy Rain
10:53 PM 63.0 °F - 61.0 °F 93% 29.96 in 10.0 mi South 13.8 mph 21.9 mph 0.04 in   Overcast
11:33 PM 64.4 °F - 60.8 °F 88% 29.97 in 4.0 mi South 19.6 mph 25.3 mph 0.07 in Rain Heavy Rain
11:44 PM 62.6 °F - 62.6 °F 100% 29.95 in 4.0 mi South 15.0 mph 25.3 mph 0.13 in Rain Heavy Rain
11:53 PM 63.0 °F - 62.1 °F 97% 29.99 in 3.0 mi West 20.7 mph 24.2 mph 0.19 in Rain Heavy Rain
11:57 PM 62.6 °F - 60.8 °F 94% 30.00 in 1.8 mi West 19.6 mph 25.3 mph 0.03 in Rain Heavy Rain